DL7GAI-7 Weather Reports


time (UTC)temp
F
wind
direction
speed
knots
gust
knots
rain 1hr
in
rain 24hr
in
rain mn
in
humidity
%
barometer
mb
20260902211647 65 90 1.7 1.7 0.00 0.00 0.00 70 1021.1
20260902210327 67 0 0.9 5.2 0.00 0.00 0.00 65 1020.9
20260902204932 67 0 0.9 5.2 0.00 0.00 0.00 65 1020.9
20260902203647 67 0 0.9 5.2 0.00 0.00 0.00 65 1020.9
20260902202242 68 315 3.5 5.2 0.00 0.00 0.00 61 1020.6
20260902200821 68 315 3.5 5.2 0.00 0.00 0.00 61 1020.6
20260902195552 71 270 2.6 7.0 0.00 0.00 0.00 53 1020.0
20260902194122 71 270 2.6 7.0 0.00 0.00 0.00 53 1020.0
20260902192837 71 315 4.3 6.1 0.00 0.00 0.00 52 1019.7
20260902191442 71 315 4.3 6.1 0.00 0.00 0.00 52 1019.7
20260902190047 72 315 4.3 10.4 0.00 0.00 0.00 49 1019.5
20260902184642 72 315 4.3 10.4 0.00 0.00 0.00 49 1019.5
20260902183338 75 270 5.2 10.4 0.00 0.00 0.00 40 1018.9
20260902182017 75 270 5.2 10.4 0.00 0.00 0.00 40 1018.9
20260902180753 75 270 5.2 10.4 0.00 0.00 0.00 40 1018.9
20260902175503 76 270 6.1 13.9 0.00 0.00 0.00 39 1018.7
20260902174057 76 270 6.1 13.9 0.00 0.00 0.00 39 1018.7
20260902172712 77 270 7.8 13.9 0.00 0.00 0.00 34 1018.6
20260902171247 77 270 7.8 13.9 0.00 0.00 0.00 34 1018.6
20260902165922 78 225 7.8 13.0 0.00 0.00 0.00 32 1018.4
20260902164607 78 225 7.8 13.0 0.00 0.00 0.00 32 1018.4
20260902163207 79 270 7.8 13.0 0.00 0.00 0.00 31 1018.3
20260902161812 79 270 7.8 13.0 0.00 0.00 0.00 31 1018.3
20260902160527 78 270 7.8 14.8 0.00 0.00 0.00 35 1018.6
20260902155327 78 270 7.8 14.8 0.00 0.00 0.00 35 1018.6
20260902153932 78 270 7.8 14.8 0.00 0.00 0.00 35 1018.6
20260902152642 77 270 8.7 14.8 0.00 0.00 0.00 34 1018.7
20260902151202 77 270 8.7 14.8 0.00 0.00 0.00 34 1018.7
20260902145902 79 270 7.8 13.9 0.00 0.00 0.00 35 1018.6
20260902144607 79 270 7.8 13.9 0.00 0.00 0.00 35 1018.6
20260902143257 78 315 5.2 10.4 0.00 0.00 0.00 42 1019.0
20260902141937 78 315 5.2 10.4 0.00 0.00 0.00 42 1019.0
20260902140602 76 270 4.3 10.4 0.00 0.00 0.00 48 1019.3
20260902135217 76 270 4.3 10.4 0.00 0.00 0.00 48 1019.3
20260902133932 76 270 4.3 10.4 0.00 0.00 0.00 48 1019.3
20260902132706 75 270 5.2 10.4 0.00 0.00 0.00 51 1019.5
20260902131312 75 270 5.2 10.4 0.00 0.00 0.00 51 1019.5
20260902125912 75 270 3.5 7.8 0.00 0.00 0.00 52 1019.7
20260902124632 75 270 3.5 7.8 0.00 0.00 0.00 52 1019.7
20260902123342 74 270 3.5 7.0 0.00 0.00 0.00 54 1020.3
20260902121912 74 270 3.5 7.0 0.00 0.00 0.00 54 1020.3
20260902120544 72 315 2.6 7.8 0.00 0.00 0.00 57 1020.7
20260902115154 72 315 2.6 7.8 0.00 0.00 0.00 57 1020.7
20260902113907 72 315 2.6 7.8 0.00 0.00 0.00 57 1020.7
20260902112504 70 270 2.6 7.8 0.00 0.00 0.00 59 1021.1
20260902111038 70 270 2.6 7.8 0.00 0.00 0.00 59 1021.1
20260902105727 69 270 3.5 6.1 0.00 0.00 0.00 61 1021.4
20260902104442 69 270 3.5 6.1 0.00 0.00 0.00 61 1021.4
20260902103147 67 270 3.5 6.1 0.00 0.00 0.00 66 1021.4
20260902101930 67 270 3.5 6.1 0.00 0.00 0.00 66 1021.4
20260902100542 68 315 1.7 4.3 0.00 0.00 0.00 63 1021.4
20260902095117 68 315 1.7 4.3 0.00 0.00 0.00 63 1021.4
20260902093817 68 315 1.7 4.3 0.00 0.00 0.00 63 1021.4
20260902092510 65 90 1.7 2.6 0.00 0.00 0.00 69 1021.4
20260902091157 65 90 1.7 2.6 0.00 0.00 0.00 69 1021.4
20260902085932 64 270 0.9 3.5 0.00 0.00 0.00 71 1021.5
20260902084637 64 270 0.9 3.5 0.00 0.00 0.00 71 1021.5
20260902083332 64 0 0.0 2.6 0.00 0.00 0.00 71 1021.5
20260902081912 64 0 0.0 2.6 0.00 0.00 0.00 71 1021.5
20260902080602 62 180 0.9 1.7 0.00 0.00 0.00 76 1021.8
20260902075111 62 180 0.9 1.7 0.00 0.00 0.00 76 1021.8
20260902073747 62 180 0.9 1.7 0.00 0.00 0.00 76 1021.8
20260902072332 58 0 0.9 1.7 0.00 0.00 0.00 85 1022.2
20260902071042 58 0 0.9 1.7 0.00 0.00 0.00 85 1022.2
20260902065812 55 90 1.7 3.5 0.00 0.00 0.00 89 1022.1
20260902064427 55 90 1.7 3.5 0.00 0.00 0.00 89 1022.1
20260902062942 54 0 1.7 3.5 0.00 0.00 0.00 92 1022.2
20260902061632 54 0 1.7 3.5 0.00 0.00 0.00 92 1022.2
20260902060217 53 0 2.6 5.2 0.00 0.00 0.00 93 1022.2
20260902054927 53 0 2.6 5.2 0.00 0.00 0.00 93 1022.2
20260902053537 55 315 3.5 5.2 0.00 0.00 0.00 88 1021.8
20260902052137 55 315 3.5 5.2 0.00 0.00 0.00 88 1021.8
20260902050812 55 315 3.5 5.2 0.00 0.00 0.00 88 1021.8
20260902045427 54 0 3.5 4.3 0.00 0.00 0.00 89 1021.9
20260902044145 54 0 3.5 4.3 0.00 0.00 0.00 89 1021.9
20260902042834 53 0 1.7 3.5 0.00 0.00 0.00 94 1022.0
20260902041530 53 0 1.7 3.5 0.00 0.00 0.00 94 1022.0
20260902040157 53 315 2.6 3.5 0.00 0.00 0.00 94 1022.1
20260902034752 53 315 2.6 3.5 0.00 0.00 0.00 94 1022.1
20260902033512 32 0 0.0 0.0 0.00 0.00 0.00 1
20260902032042 32 0 0.0 0.0 0.00 0.00 0.00 1
20260902030612 32 0 0.0 0.0 0.00 0.00 0.00 1
20260902025222 54 0 2.6 4.3 0.00 0.00 0.00 90 1022.0
20260902023812 54 0 2.6 4.3 0.00 0.00 0.00 90 1022.0
20260902022510 56 315 3.5 4.3 0.00 0.00 0.00 90 1022.0
20260902021227 56 315 3.5 4.3 0.00 0.00 0.00 90 1022.0
20260902015942 56 315 3.5 4.3 0.00 0.00 0.00 89 1021.9
20260902013207 55 0 3.5 4.3 0.00 0.00 0.00 89 1022.0
20260902011847 55 0 3.5 4.3 0.00 0.00 0.00 89 1022.0
20260902010542 56 315 2.6 5.2 0.00 0.00 0.00 88 1022.0
20260902005154 56 315 2.6 5.2 0.00 0.00 0.00 88 1022.0
20260902003807 56 315 2.6 5.2 0.00 0.00 0.00 88 1022.0
20260902002357 56 0 2.6 3.5 0.00 0.00 0.00 88 1022.0
20260902001042 56 0 2.6 3.5 0.00 0.00 0.00 88 1022.0
20260901235822 56 0 1.7 3.5 0.00 0.00 0.00 87 1022.1
20260901234602 56 0 1.7 3.5 0.00 0.00 0.00 87 1022.1
20260901233302 57 0 1.7 3.5 0.00 0.00 0.00 85 1022.0
20260901231812 57 0 1.7 3.5 0.00 0.00 0.00 85 1022.0
20260901230547 58 45 1.7 5.2 0.00 0.00 0.00 83 1022.0
20260901225232 58 45 1.7 5.2 0.00 0.00 0.00 83 1022.0
20260901223912 58 45 1.7 5.2 0.00 0.00 0.00 83 1022.0
20260901222621 59 0 0.9 5.2 0.00 0.00 0.00 81 1021.7
20260901221202 59 0 0.9 5.2 0.00 0.00 0.00 81 1021.7
20260901215752 60 0 3.5 6.1 0.00 0.00 0.00 81 1021.7
20260901214356 60 0 3.5 6.1 0.00 0.00 0.00 81 1021.7
20260901213002 59 0 5.2 6.1 0.00 0.00 0.00 81 1021.6